Location: eljas
(40.1958°N, 6.8661°W)
Time: 17:53:23
(UTC+01:00)

Daily predictions for brighter satellites

Satellite Brightness Start Highest point End
(mag) Time Altitude Azimuth Time Altitude Azimuth Time Altitude Azimuth
ALOS 3.3 19:35:55 10° ESE 19:39:39 24° ENE 19:43:24 10° NNE
Cosmos 1602 4.2 19:37:13 10° SSE 19:40:49 38° E 19:44:29 10° NNE
Cosmos 1025 Rocket 4.5 19:41:08 10° NNE 19:44:06 18° ENE 19:47:05 10° ESE
Cosmos 2322 Rocket 3.3 19:39:40 10° NNW 19:45:06 51° WSW 19:50:30 10° S
FENGYUN 3A 4.4 19:40:42 10° SE 19:45:21 30° ENE 19:50:02 10° N
NOAA 12 4.2 19:40:17 10° SSE 19:45:28 56° ENE 19:50:41 10° N
Cosmos 1340 2.7 19:44:05 10° N 19:47:50 57° E 19:51:33 10° SSE
Cosmos 1741 Rocket 4.5 19:46:36 10° SSE 19:51:24 38° ESE 19:56:11 10° NE
Cosmos 407 Rocket 4.5 19:46:35 10° SW 19:51:42 52° WNW 19:56:54 10° N
SKYMED 2 4.1 19:47:56 10° N 19:52:15 65° WNW 19:56:32 10° SSW
NOSS 8 (E) 4.4 19:52:51 10° SSW 19:56:16 71° ESE 19:59:57 10° NE
BREEZE-M DEB (TANK) 3.5 19:51:59 10° SSW 19:56:43 35° SSE 19:58:49 13° E
Cosmos 676 Rocket 4.5 19:53:18 10° SSW 19:58:26 66° WNW 20:03:39 10° NNE
USA 229 DEB 4.4 19:53:50 10° NNW 20:00:26 39° NE 20:07:06 10° ESE
USA 229 4.4 19:53:55 10° NNW 20:00:31 38° NE 20:07:11 10° ESE
METEOR-M 4.1 19:57:36 10° SSE 20:02:55 80° ENE 20:08:17 10° N
Cosmos 2322 3.7 19:58:55 10° NNW 20:04:41 77° ENE 20:10:22 10° SSE
Okean 1-7 Rocket 4.1 20:00:49 10° N 20:05:03 38° ENE 20:09:13 10° SSE
Meteor 1-28 Rocket 4.2 20:02:00 10° N 20:05:43 51° WNW 20:09:24 10° SSW
Cosmos 1536 Rocket 4.0 20:01:29 10° NNW 20:05:56 68° W 20:10:22 10° S
Cosmos 1140 Rocket 3.5 20:01:01 10° SSW 20:06:09 89° E 20:11:21 10° NNE
Meteor 1-19 Rocket 4.2 20:01:59 10° N 20:07:41 71° E 20:13:27 10° SSE
Cosmos 1570 Rocket 4.2 20:04:18 10° N 20:09:24 51° ENE 20:14:29 10° SE
Cosmos 614 Rocket 3.9 20:04:48 10° S 20:09:51 72° ESE 20:14:55 10° NNE
Genesis I 3.3 20:06:54 10° NNW 20:10:48 56° NE 20:14:38 10° SE
NOSS 8 (H) 4.3 20:07:37 10° SSW 20:10:58 72° ESE 20:14:31 10° NE
Abrixas rocket 2.4 20:09:08 10° SW 20:12:26 58° SE 20:14:38 19° ENE
FREGAT/IRIS 2.6 20:12:11 10° SSE 20:15:15 88° E 20:18:22 10° N
GPS 2-04 Rocket1 3.8 20:11:49 10° SW 20:15:44 37° SSE 20:18:27 18° ESE
Gbstr 26 Del rocket 3.1 20:14:43 10° WSW 20:18:32 59° NNW 20:21:42 13° NE
Tiangong 2 4.0 20:17:35 10° WSW 20:18:50 12° SW 20:20:05 10° SSW
Cosmos 2237 Rocket 3.5 20:16:42 10° N 20:20:54 20° NE 20:22:36 18° ENE
Cosmos 1633 3.4 20:17:37 10° SSW 20:21:13 53° W 20:24:51 10° N
ATLAS 2A CENTAUR R/B 4.0 20:20:50 10° S 20:21:21 10° SSE 20:21:57 10° SSE
Cosmos 2333 4.4 20:15:56 10° NNW 20:21:30 49° ENE 20:27:03 10° SE
COSMOS 2428 2.8 20:16:27 10° NNW 20:22:04 56° ENE 20:27:38 10° SE
Cosmos 2237 4.2 20:16:22 10° NNW 20:22:07 72° ENE 20:27:48 10° SSE
Hubble Space Telescope 3.1 20:23:36 10° S 20:25:09 12° SSE 20:26:41 10° SE
Meteor 2-4 Rocket 3.5 20:21:05 10° N 20:26:37 72° E 20:31:58 10° SSE
SJ-6B 3.0 20:22:42 10° S 20:26:41 73° WSW 20:30:36 10° NNW
Spot 2 Rocket 3.6 20:21:48 10° SSE 20:26:42 53° ENE 20:31:38 10° N
Atlas Centaur 2 4.5 20:26:36 10° S 20:28:11 11° SSE 20:29:41 10° SE
Meteor 1-23 Rocket 4.2 20:23:19 10° N 20:29:05 62° E 20:34:45 10° SSE
Cosmos 1300 Rocket 4.3 20:26:48 10° SSW 20:31:08 55° W 20:35:30 10° N
Cosmos 2360 Rocket 3.0 20:29:15 10° NNW 20:34:43 52° WSW 20:40:11 10° S
Helios 1A 3.6 20:33:47 28° ESE 20:34:55 33° ENE 20:38:39 10° N
Cosmos 2219 Rocket 2.6 20:30:06 10° N 20:35:23 40° ENE 20:38:13 24° ESE
Cosmos 1238 Rocket 3.8 20:32:50 10° NNW 20:35:35 35° W 20:38:22 10° SSW
Cosmos 405 Rocket 3.5 20:33:52 10° N 20:37:33 32° ENE 20:37:39 32° ENE
Okean 2 3.7 20:34:20 10° N 20:38:20 43° ENE 20:40:32 23° SE
Cosmos 2208 Rocket 4.0 20:33:22 10° NNW 20:38:51 87° ENE 20:44:14 10° SSE
Cosmos 2219 3.2 20:33:43 10° SSW 20:39:28 89° ESE 20:45:15 10° NNE
CZ-2D R/B 3.4 20:37:57 27° SE 20:39:39 46° ENE 20:43:20 10° N
Helios 1B rocket 2.9 20:36:59 10° NNE 20:40:50 36° E 20:44:38 10° SSE
Cosmos 1850 Rocket 4.3 20:35:46 10° SSW 20:41:02 72° WNW 20:46:24 10° NNE
H-2A R/B 2.5 20:37:39 10° SSE 20:41:20 67° ENE 20:45:04 10° N
Resurs 01 Rocket 1.5 20:38:49 10° SSE 20:43:13 82° ENE 20:47:38 10° N
Envisat 4.0 20:43:32 25° ENE 20:43:32 25° ENE 20:47:25 10° NNE
Cosmos 2227 Rocket 2.9 20:38:35 10° SSE 20:43:20 29° ESE 20:43:20 29° ESE
Cosmos 2074 Rocket 3.9 20:43:55 10° S 20:50:11 88° E 20:56:30 10° N
Cosmos 2184 Rocket 4.0 20:48:54 10° S 20:55:14 88° W 21:01:32 10° N
SL-16 R/B 3.9 20:51:58 10° N 20:54:55 17° NE 20:54:55 17° NE
Cosmos 1536 4.0 20:52:16 10° SSW 20:56:04 43° W 20:59:53 10° N
Resurs 1-3 3.6 20:52:14 10° SSE 20:56:37 85° WSW 21:01:02 10° NNW
Spot 1 3.8 21:08:50 61° SSE 21:09:31 87° E 21:13:42 10° NNW
Meteor 2-13 Rocket 4.3 21:05:56 10° S 21:12:00 85° E 21:18:08 10° N
Cosmos 1892 Rocket 3.4 21:10:12 10° N 21:14:34 88° ENE 21:15:00 72° SSE
Nadezhda 3 Rocket 3.9 21:08:26 10° N 21:14:34 64° E 21:17:04 37° SSE
Cosmos 2333 Rocket 2.1 21:10:46 10° NNW 21:16:32 70° ENE 21:17:42 55° SE
ALOS 3.9 21:12:42 10° SSW 21:16:55 33° W 21:21:09 10° NNW
Cosmos 1980 3.6 21:14:40 10° NNW 21:20:16 60° ENE 21:20:26 60° ENE
Cosmos 2341 Rocket 4.0 21:15:11 10° S 21:21:24 59° E 21:27:40 10° NNE
Cosmos 1025 Rocket 4.5 21:17:48 10° NNW 21:21:52 38° W 21:25:55 10° SSW
Cosmos 2154 Rocket 3.9 21:18:09 10° S 21:24:29 83° E 21:30:51 10° N
Cosmos 2285 Rocket 4.4 21:20:13 10° NNW 21:26:35 64° WSW 21:32:07 14° S
NOSS 0 Rocket 3.8 21:22:18 10° NNW 21:28:29 87° ENE 21:29:54 56° SSE
GEOS 3 Rocket 4.4 21:29:03 18° NNE 21:32:45 51° NW 21:37:51 10° WSW
Cosmos 1763 Rocket 4.3 21:32:47 10° NNW 21:36:09 40° N 21:36:09 40° N
Cosmos 2082 4.5 21:38:42 10° SSW 21:42:13 40° SSW 21:42:13 40° SSW
USA 229 DEB 4.5 21:44:43 10° NW 21:51:33 50° WSW 21:54:51 30° S
USA 229 4.5 21:44:49 10° NW 21:51:40 50° WSW 21:54:53 31° S
NOSS 3-1 (A) 3.9 21:56:54 10° NNW 22:04:21 75° NE 22:04:21 75° NE
Cosmos 2237 Rocket 2.8 21:59:47 10° NNW 22:04:29 55° WNW 22:04:29 55° WNW
Cosmos 2297 Rocket 4.2 22:01:07 10° SSW 22:02:22 17° SSW 22:02:22 17° SSW
ATLAS 2AS CENTAUR R/B 4.1 22:03:03 10° NNW 22:08:57 30° NNE 22:08:57 30° NNE
Cosmos 2219 Rocket 3.9 22:14:27 10° NW 22:19:06 27° WSW 22:20:02 26° WSW
NOSS 3-1 (C) 4.1 22:15:24 10° NW 22:22:59 72° WSW 22:22:59 72° WSW
Cosmos 2227 Rocket 3.7 22:21:55 10° SW 22:25:22 31° W 22:25:22 31° W
SL-16 R/B 4.1 22:34:44 10° NNW 22:36:49 23° NNW 22:36:49 23° NNW
